www.pogodaiklimat.ru

Погода и климат >> Архив погоды >> Китай >> Юньнань >> Жуйли


ПОГОДА в Жуйли

  • Прогноз погоды в Жуйли
  • Монитор погоды в Жуйли

АРХИВ ПОГОДЫ в Жуйли

Время (UTC), дата Ветер
(напр.,м/с)
 
Видим.   Явления Облачность Т
(С)
Тd
(С)
f
(%)
Тe
(С)
Тes
(С)
Комфортность P
(гПа)
Po
(гПа)
Тmin
(С)
Tmax
(С)
R
(мм)
R24
(мм)
S
(см)
21 9.09 штиль 0 9000 м слаб. дождь ?/? +23.4 +22.6 95 +32 +32 очень
душно
1003.5 917.7
00 10.09 С 1 3600 м сильн. дождь 10/10 600 м
[]
+23.5 +22.7 95 +31 +31 очень
душно
1005.4 919.4 5
03 10.09 З 1 11 км в посл. час дождь 10/10 600 м
[]
+24.7 +22.9 90 +33 +33 очень
душно
1006.6 920.8
06 10.09 ЮЗ 2 11 км слаб. дождь 10/10 600 м
[]
+26.0 +23.5 86 +35 +35 очень
душно
1004.8 919.6 +23.4 5
09 10.09 ЮЗ 2 30 км {дождь} 10/10 600 м
[]
+25.8 +22.7 83 +34 +34 очень
душно
1003.2 918.0
12 10.09 Ю 1 30 км {дождь} 9/9 1000 м
[]
+25.3 +22.4 84 +33 +33 очень
душно
1004.5 919.1 0.3
18 10.09 штиль 0 18 км ?/? +23.8 +22.8 94 +31 +31 очень
душно
1006.4 920.4 +26.6
21 10.09 ЮЗ 1 24 км н/о +23.5 +22.5 94 +31 +31 очень
душно
1005.3 919.3
00 11.09 СВ 1 3400 м слаб. дождь 10/10 600 м
[]
+23.4 +22.7 96 +33 +33 очень
душно
1006.9 920.8 8
03 11.09 В 1 3800 м дождь 10/10 1000 м
[]
+22.7 +22.0 96 +31 +31 очень
душно
1010.1 923.5
06 11.09 СВ 1 30 км {дождь} 9/9 1000 м
[]
+25.7 +22.2 81 +33 +36 очень
душно
1008.3 922.7 +22.5 27
09 11.09 С 2 30 км {дождь} 9/9 600 м
[]
+25.8 +22.7 83 +34 +35 очень
душно
1006.8 921.3
12 11.09 С 1 16 км слаб. дождь 10/10 1000 м
[]
+24.4 +22.5 89 +32 +32 очень
душно
1008.0 922.0 0.3
18 11.09 З 2 6000 м дождь ?/? +22.9 +22.1 95 +31 +31 очень
душно
1011.0 924.4 +26.6 3
21 11.09 С 1 8000 м дождь ?/? +22.1 +21.3 95 +29 +29 очень
душно
1010.2 923.4
00 12.09 С 1 16 км в посл. час дождь 10/10 1000 м
[]
+22.2 +21.2 94 +29 +29 очень
душно
1011.7 924.8 9
03 12.09 С 1 30 км 9/9 1000 м
[]
+27.5 +21.5 70 +35 +37 очень
душно
1012.5 927.0
06 12.09 З 2 25 км 9/9 1000 м
[]
+26.1 +22.2 79 +34 +36 очень
душно
1011.1 925.4 +22.0
09 12.09 ЮЗ 1 30 км 9/9 1000 м
[]
+29.0 +20.5 60 +36 +37 очень
душно
1007.7 923.0
12 12.09 З 1 30 км 9/9 1000 м
[]
+23.6 +21.7 89 +30 +30 очень
душно
1009.6 923.3
18 12.09 штиль 0 30 км ?/? +23.0 +21.6 92 +31 +31 очень
душно
1011.1 1011.0 +29.4
21 12.09 штиль 0 30 км н/о +22.9 +21.7 93 +31 +31 очень
душно
1009.3 922.8
00 13.09 СЗ 1 30 км 9/9 1000 м
[]
+23.0 +21.8 93 +31 +31 очень
душно
1011.2 924.6
03 13.09 С 1 30 км 9/9 1000 м
[]
+25.6 +21.3 77 +32 +34 очень
душно
1011.8 925.9
06 13.09 ЮЗ 3 30 км 9/9 1000 м
[]
+29.2 +21.7 64 +37 +39 очень
душно
1009.0 924.3 +22.8
09 13.09 СЗ 1 30 км {дождь} 6/6 1000 м
[]
+28.9 +21.9 66 +37 +41 очень
душно
1006.4 921.8
12 13.09 З 2 30 км {дождь} 3/3 1000 м
[]
+25.8 +22.3 81 +34 +34 очень
душно
1007.3 921.8 0.1
18 13.09 штиль 0 30 км ?/? +22.9 +21.4 91 +30 +30 очень
душно
1009.0 922.5 +29.5
21 13.09 штиль 0 27 км н/о +22.6 +21.4 93 +30 +30 очень
душно
1008.3 921.8
00 14.09 В 1 30 км 9/9 1000 м
[]
+23.2 +21.3 89 +31 +31 очень
душно
1009.9 923.5
03 14.09 штиль 0 30 км 9/9 1000 м
[]
+27.6 +22.1 72 +36 +37 очень
душно
1010.5 925.2
06 14.09 ЮЗ 2 28 км 8/8 1000 м
[]
+30.2 +21.6 60 +38 +42 очень
душно
1007.7 923.3 +22.4
09 14.09 ЮЗ 3 30 км 9/9 1000 м
[]
+29.8 +22.3 64 +39 +39 очень
душно
1005.3 921.0
12 14.09 ЮЗ 2 23 км 8/8 1000 м
[]
+26.5 +23.0 81 +35 +35 очень
душно
1007.0 921.7
18 14.09 Ю 1 25 км ?/? +23.6 +22.4 93 +31 +31 очень
душно
1008.3 922.1 +31.3
21 14.09 В 1 23 км н/о +23.4 +21.8 91 +32 +32 очень
душно
1007.8 921.6
00 15.09 З 1 8000 м слаб. дождь 10/10 600 м
[]
+22.9 +22.1 95 +31 +31 очень
душно
1009.7 923.2 0.4
03 15.09 СВ 2 30 км 9/9 1000 м
[]
+27.8 +21.1 67 +35 +36 очень
душно
1009.9 924.7
06 15.09 В 3 30 км 9/9 1000 м
[]
+28.4 +22.2 69 +37 +38 очень
душно
1007.8 923.0 +22.8
09 15.09 С 2 30 км 10/10 1000 м
[]
+25.7 +21.2 76 +32 +32 очень
душно
1006.6 921.1
12 15.09 З 1 19 км {дождь} 10/10 1000 м
[]
+24.0 +22.1 89 +31 +31 очень
душно
1007.6 921.6 0.9
18 15.09 В 1 29 км ?/? +23.4 +21.5 89 +32 +32 очень
душно
1008.6 922.3 +29.6
21 15.09 ЮЗ 1 16 км н/о +22.5 +21.5 94 +30 +30 очень
душно
1009.0 922.4
00 16.09 штиль 0 16 км 10/10 600 м
[]
+22.5 +21.3 93 +30 +30 очень
душно
1010.4 923.7
03 16.09 З 1 19 км 4/4 1000 м
[]
+26.0 +21.4 76 +33 +41 очень
душно
1010.5 924.8
06 16.09 ЮЗ 2 16 км 3/3 1000 м
[]
+29.6 +22.6 66 +39 +52 опасность
солнечного
удара
1007.0 922.5 +22.2
09 16.09 Ю 4 24 км 9/9 1000 м
[]
+25.9 +20.9 74 +32 +33 очень
душно
1005.6 920.3
12 16.09 ЮВ 1 20 км {дождь} 3/3 1000 м
[]
+25.6 +21.7 79 +33 +33 очень
душно
1006.0 920.5 0.0
18 16.09 З 1 19 км ?/? +22.5 +21.3 93 +30 +30 очень
душно
1008.8 922.2 +32.3

 

Местоположение метеостанции Жуйли (Юньнань, Китай): широта 24.02 долгота 97.83 высота над уровнем моря 776 м.

В архиве по умолчанию представлена погода в Жуйли за последнюю неделю. Архивные данные за месяц целиком и за предыдущие месяцы, начиная с января 2011 года, Вы можете получить, выбрав интересующий диапазон дат из раскрывающегося списка и нажав кнопку "Ввод!".


*Определитесь, кто Вы:
робот инопланетянин человек

Внимание! Время в таблицах - всемирное. Для получения местного времени необходимо прибавить поправку, которая равна 8 ч.

Смотрите также архив погоды в соседних городах и на ближайших метеорологических станциях:

Погода в Банмо (Мьянма) (70 км)
Погода в Лашо (Мьянма) (122 км)
Погода в Тенгчонге (Юньнань, Китай) (139 км)
Погода в Катхе (Мьянма) (153 км)
Погода в Мьичине (Мьянма) (156 км)
Погода в Генгма (Юньнань, Китай) (168 км)
Погода в Могоу (Мьянма) (183 км)
Погода в Баошане (Хэйлунцзян, Китай) (183 км)
Погода в Линьцане (Юньнань, Китай) (242 км)
Погода в Мемьо (Мьянма) (262 км)

Пояснения к столбцам:

Ветер - указаны скорость ветра в м/с - средняя за 10 мин, порывы в срок и между сроками (в фигурных скобках) и направление, откуда дует ветер: С - северный, СВ - северо-восточный, В - восточный, ЮВ - юго-восточный, Ю - южный, ЮЗ - юго-западный, З - западный, СЗ - северо-западный.
Видимость - горизонтальная дальность видимости в метрах или километрах. При видимости от 1 до 10 км при отсутствии осадков обычно наблюдается дымка, при ухудшении видимости до 1 км и менее - туман. В сухую погоду видимость может ухудшаться дымом, пылью или мглою.
Явления - указаны атмосферные явления, наблюдавшиеся в срок или в последний час перед сроком; фигурными скобками обозначены явления, наблюдавшиеся между сроками (за 1-3 часа до срока); квадратными скобками обозначены град или гололедные отложения с указанием их диаметра в мм.
Облачность - указаны через наклонную черту общая и нижняя облачность в баллах и высота нижней границы облаков в метрах; квадратными скобками обозначены формы облаков: Ci - перистые, Cs - перисто-слоистые, Cc - перисто-кучевые, Ac - высококучевые, As - высокослоистые, Sc - слоисто-кучевые, Ns - слоисто-дождевые, Cu - кучевые, Cb - кучево-дождевые. Подробнее классификацию облаков см. в Атласе облаков (PDF).
T - Температура воздуха - температура, измеренная на высоте 2 м над землей.
Td - Температура точки росы - температура, при понижении до которой содержащийся в воздухе водяной пар достигнет насыщения.
f - Относительная влажность воздуха - влажноcть воздуха, измеренная на высоте 2 м над землей.
Te - Эффективная температура - температура, которую ощущает одетый по сезону человек в тени. Характеристика душности погоды. При расчете учитывается влияние влажности воздуха и скорости ветра на теплоощущения человека.
Tes - Эффективная температура на солнце - температура, которую ощущает человек, с поправкой на солнечный нагрев. Характеристика знойности погоды. Зависит от высоты солнца над горизонтом, облачности и скорости ветра. Ночью, в пасмурную погоду, а также при ветре 12 м/с и более поправка равна нулю.
P - Атмосферное давление - приведенное к уровню моря атмосферное давление.
Po - Атмосферное давление - измеренное на уровне метеостанции атмосферное давление.
Tmin - Минимальная температура - минимум температуры воздуха на высоте 2 м над землей.
Tmax - Максимальная температура - максимум температуры воздуха на высоте 2 м над землей.
R - Количество осадков - Количество выпавших осадков за период времени, мм. При наведении курсора мыши на число - период времени, за который выпало указанное количество осадков.
R24 - Количество осадков - Количество выпавших осадков за 24 часа, мм.
S - Снежный покров - Высота снежного покрова, см. При наведении курсора мыши на число - состояние снежного покрова и степень покрытия местности в баллах.